Home > Weather > Little Rock > Past weeks

Flag for U.S.A. Weather for the Past 2 Weeks in Little Rock, Arkansas, U.S.A.

Now
41 °F

Passing clouds.


Feels Like: 35 °F
Forecast: 30 / 59 °F
Wind: 9 mph from Northeast

Location: Adams Field

Current Time: Feb 11, 2016 at 10:38:42 PM

Latest Report: Feb 11, 2016 at 9:53 PM


Visibility: 10 mi

Pressure: 30.24 "Hg

Humidity: 55%

Dew point: 26 °F

Location of Little RockLocation

Historic Weather in Little Rock — Graph

°F

Little Rock Temperature Yesterday

Maximum temperature yesterday: 53 °F (at 3:53 PM)
Minimum temperature yesterday: 28 °F (at 6:53 AM)
Average temperature yesterday: 40 °F

High & Low Weather Summary for the Past Weeks

 TemperatureHumidityPressure
High74 °F (Feb 2, 1:53 PM)93% (Feb 2, 3:53 AM)30.51 "Hg (Feb 2, 3:53 AM)
Low27 °F (Feb 5, 6:53 AM)15% (Feb 9, 4:53 PM)29.54 "Hg (Feb 2, 3:53 PM)
Average48 °F50%30.07 "Hg
* Reported Jan 27 8:53 PM — Feb 11 8:53 PM, Little Rock, Weather by CustomWeather, © 2016

Note: Actual official high and low records may vary slightly from our data, if they occured in-between our weather recording intervals... More about our weather records

Advertising

Little Rock Weather History for the Previous 24 Hours

 ConditionsComfort  
Time TempWeatherWind HumidityBarometerVisibility
8:53 PM
Thu, Feb 11
43 °FPassing clouds.8 mph51%30.21 "Hg10 mi
7:53 PM43 °FPassing clouds.9 mph51%30.24 "Hg10 mi
6:53 PM43 °FPassing clouds.8 mph49%30.24 "Hg10 mi
5:53 PM45 °FPassing clouds.9 mph45%30.22 "Hg10 mi
4:53 PM49 °FPartly sunny.10 mph39%30.21 "Hg10 mi
2:53 PM53 °FScattered clouds.12 mph35%30.19 "Hg10 mi
1:53 PM53 °FPassing clouds.12 mph34%30.19 "Hg10 mi
12:53 PM51 °FPassing clouds.12 mph36%30.19 "Hg10 mi
11:53 AM47 °FScattered clouds.10 mph39%30.19 "Hg10 mi
10:53 AM43 °FScattered clouds.14 mph43%30.21 "Hg10 mi
9:53 AM39 °FPartly sunny.9 mph50%30.20 "Hg10 mi
8:53 AM37 °FScattered clouds.9 mph60%30.16 "Hg10 mi
7:53 AM34 °FPartly sunny.9 mph70%30.13 "Hg10 mi
6:53 AM31 °FPartly cloudy.6 mph79%30.10 "Hg10 mi
5:53 AM32 °FPassing clouds.5 mph75%30.07 "Hg10 mi
4:53 AM33 °FClear.3 mph75%30.05 "Hg10 mi
3:53 AM34 °FClear.5 mph76%30.03 "Hg10 mi
2:53 AM36 °FClear.No wind70%30.01 "Hg10 mi
1:53 AM35 °FClear.5 mph72%30.00 "Hg10 mi
12:53 AM36 °FClear.No wind67%30.02 "Hg10 mi
11:53 PM
Wed, Feb 10
37 °FClear.No wind65%30.03 "Hg10 mi
10:53 PM40 °FClear.3 mph58%30.04 "Hg10 mi
Weather by CustomWeather, © 2016

See weather overviewHow to use our weather pages